This demonstration page uses our WeatherBlox Daily Observations layout. Learn more.

Left ArrowRight Arrow

34.74481, -87.66753

Hourly Observations for December 14, 2018

Temp ( °F °C ) Dew Point ( °F °C ) Humidity (%) Winds ( mph kmh ) Pressure ( in mb ) Visibility ( mi km ) Precip ( " mm )
1:48 am 01:48 Cloudy 52 11 45 7 77 77 ESE 10 17 29.97 1015 10 16 0.00 0.00
1:53 am 01:53 Cloudy 53 11.7 45 7.2 74 74 ESE 9 15 29.96 1014 10 16 0.00 0.00
2:53 am 02:53 Cloudy with Light Rain 52 11.1 46 7.8 80 80 E 8 13 29.95 1014 8 13 0.00 0.03
3:04 am 03:04 Cloudy 52 11.1 46 7.8 80 80 E 7 11 29.94 1014 10 16 0.00 0.03
3:53 am 03:53 Cloudy 52 11.1 47 8.3 83 83 E 8 13 29.93 1014 10 16 0.01 0.25
4:53 am 04:53 Cloudy 52 11.1 48 8.9 86 86 E 8 13 29.92 1013 10 16 0.00 0.00
5:53 am 05:53 Cloudy 52 11.1 48 8.9 86 86 E 7 11 29.91 1013 10 16 0.00 0.03
6:41 am 06:41 Cloudy with Rain 52 11.1 49 9.4 89 89 E 6 9 29.94 1014 5 8 0.04 1.02
6:53 am 06:53 Cloudy with Light Rain 52 11.1 49 9.4 89 89 E 6 9 29.92 1013 4 6 0.09 2.29
7:20 am 07:20 Cloudy with Light Rain 52 11.1 50 10 93 93 E 7 11 29.94 1014 8 13 0.01 0.25
7:53 am 07:53 Cloudy with Light Rain 53 11.7 50 10 89 89 E 6 9 29.93 1014 6 10 0.05 1.27
8:14 am 08:14 Cloudy with Light Rain 53 11.7 50 10 89 89 ESE 5 7 29.94 1014 4 6 0.01 0.25
8:31 am 08:31 Cloudy with Rain 53 11.7 51 10.6 93 93 E 5 7 29.94 1014 4 6 0.03 0.76
8:36 am 08:36 Cloudy with Light Rain 53 11.7 51 10.6 93 93 E 7 11 29.94 1014 3 4 0.03 0.76
8:44 am 08:44 Cloudy with Light Rain 53 11.7 51 10.6 93 93 E 8 13 29.94 1014 2 3 0.04 1.02
8:51 am 08:51 Cloudy with Light Rain 54 12 52 11 94 94 ENE 6 9 29.94 1014 3 4 0.04 1.02
9:00 am 09:00 Cloudy with Light Rain 53 11.7 51 10.6 93 93 ENE 5 7 29.94 1014 3 5 0.00 0.03
9:21 am 09:21 Cloudy with Light Rain 53 11.7 51 10.6 93 93 ENE 6 9 29.94 1014 4 6 0.00 0.03
9:29 am 09:29 Cloudy with Rain 53 11.7 51 10.6 93 93 ENE 5 7 29.94 1014 2 3 0.02 0.51
9:39 am 09:39 Cloudy with Light Rain 53 11.7 51 10.6 93 93 ENE 5 7 29.94 1014 2 3 0.03 0.76
9:46 am 09:46 Cloudy with Light Rain 53 11.7 51 10.6 93 93 ENE 8 13 29.94 1014 2 3 0.04 1.02
9:53 am 09:53 Cloudy with Rain 53 11.7 51 10.6 93 93 ENE 6 9 29.94 1014 3 5 0.05 1.27
10:17 am 10:17 Cloudy with Light Rain 54 12.2 52 11.1 93 93 ENE 9 15 29.91 1013 6 10 0.02 0.51
10:37 am 10:37 Cloudy with Mist and Fog 54 12.2 52 11.1 93 93 ENE 9 15 29.91 1013 6 10 0.02 0.51
10:53 am 10:53 Cloudy 55 12.8 52 11.1 90 90 E 8 13 29.90 1013 10 16 0.02 0.51
11:53 am 11:53 Cloudy with Mist and Fog 56 13.3 53 11.7 90 90 E 9 15 29.86 1011 5 8 0.00 0.03
12:53 pm 12:53 Cloudy 55 12.8 53 11.7 93 93 ESE 8 13 29.85 1011 10 16 0.00 0.00
1:53 pm 13:53 Cloudy 56 13.3 53 11.7 90 90 E 8 13 29.80 1009 10 16 0.00 0.00
2:53 pm 14:53 Cloudy 57 13.9 54 12.2 90 90 E 8 13 29.80 1009 10 16 0.00 0.00
3:53 pm 15:53 Cloudy with Light Rain 56 13.3 53 11.7 90 90 E 6 9 29.80 1009 3 5 0.00 0.03
4:53 pm 16:53 Cloudy 55 12.8 53 11.7 93 93 ENE 6 9 29.80 1009 10 16 0.01 0.25
5:53 pm 17:53 Cloudy 56 13.3 54 12.2 93 93 E 6 9 29.80 1009 10 16 0.00 0.00
6:05 pm 18:05 Cloudy 56 13.3 54 12.2 93 93 VRB 5 7 29.83 1010 10 16 0.00 0.00
7:53 pm 19:53 Cloudy 56 13.3 54 12.2 93 93 ESE 8 13 29.80 1009 10 16 0.00 0.03
8:24 pm 20:24 Cloudy 56 13.3 54 12.2 93 93 E 6 9 29.83 1010 10 16 0.00 0.00
8:51 pm 20:51 Cloudy 55 13 54 12 94 94 ESE 6 9 29.83 1010 10 16 0.00 0.00
8:53 pm 20:53 Cloudy 56 13.3 54 12.2 93 93 ESE 7 11 29.80 1009 10 16 0.00 0.00
9:00 pm 21:00 Cloudy 56 13.3 54 12.2 93 93 ESE 7 11 29.83 1010 10 16 0.00 0.00
9:14 pm 21:14 Cloudy 56 13.3 54 12.2 93 93 ESE 7 11 29.83 1010 10 16 0.00 0.00
9:53 pm 21:53 Cloudy 56 13.3 54 12.2 93 93 ESE 8 13 29.79 1009 10 16 0.01 0.25
10:53 pm 22:53 Cloudy with Mist and Fog 56 13.3 54 12.2 93 93 SE 7 11 29.79 1009 6 10 0.01 0.25
11:23 pm 23:23 Cloudy with Light Rain 53 11.7 49 9.4 86 86 SW 15 24 29.85 1011 7 11 0.01 0.25
11:32 pm 23:32 Cloudy with Light Rain 53 11.7 49 9.4 86 86 SW 12 19 29.85 1011 10 16 0.01 0.25
11:53 pm 23:53 Mostly Cloudy 51 10.6 47 8.3 86 86 WSW 8 13 29.80 1009 10 16 0.01 0.25

Powered by AerisWeather